Hourly Data Report for October 03, 2019

QUALICUM BEACH AIRPORT
BRITISH COLUMBIA
Current Station Operator: ECCC - MSC

49°20'14.000" N
124°23'38.000" W
58.20 m
1026562
71766
VOQ

Download Data

Hourly Data (October 2019)
Hourly Data Report for October 3, 2019
TIME
LST
Temp Definition
°C
Dew Point Definition
°C
Rel Hum Definition
%
Precip. Amount Definition
mm

Wind Dir Definition
10's deg

Wind Spd Definition
km/h
Visibility Definition
km
Stn Press Definition
kPa
Hmdx Definition


Wind Chill Definition


Weather Definition


00:00 9.3 8.8 96 0.0 18 3   100.68     LegendNANA
01:00 9.2 8.5 95 0.3 13 5   100.65     LegendNANA
02:00 9.2 7.8 91 0.3 17 8   100.59     LegendNANA
03:00 9.5 7.9 90 0.0 15 8   100.55     LegendNANA
04:00 10.0 7.9 87 0.0 14 8   100.52     LegendNANA
05:00 10.3 7.9 85 0.0 13 12   100.47     LegendNANA
06:00 10.3 8.1 86 0.0 12 15   100.45     LegendNANA
07:00 10.6 8.4 86 0.0 12 16   100.40     LegendNANA
08:00 10.7 8.3 85 0.0 13 15   100.39     LegendNANA
09:00 10.9 8.5 85 0.3 10 16   100.40     LegendNANA
10:00 12.3 8.0 75 0.0 11 16   100.43     LegendNANA
11:00 13.8 5.9 59 0.0 16 9   100.49     LegendNANA
12:00 14.5 6.2 58 0.0 14 20   100.51     LegendNANA
13:00 14.5 5.8 56 0.0 15 15   100.52     LegendNANA
14:00 14.1 5.9 58 0.0 15 24   100.54     LegendNANA
15:00 14.4 6.2 58 0.0 14 19   100.59     LegendNANA
16:00 14.0 5.8 58 0.0 16 11   100.61     LegendNANA
17:00 13.5 5.4 58 0.0 17 8   100.65     LegendNANA
18:00 12.9 5.1 59 0.0 17 6   100.67     LegendNANA
19:00 12.3 5.5 63 0.0 18 6   100.71     LegendNANA
20:00 11.3 6.2 71 0.0 10 6   100.74     LegendNANA
21:00 10.5 6.4 76 0.0 16 5   100.76     LegendNANA
22:00 9.6 6.6 82 0.0 15 5   100.78     LegendNANA
23:00 9.5 6.7 83 0.0 13 6   100.80     LegendNANA

Notes on Data Quality.

Legend

  • E = Estimated
  • M = Missing
  • NA = Not Available*
  • [empty] = Indicates an unobserved value
Date modified: